327  
ASPQ40 PGUM 181310  
RWRPQ  
WEATHER ROUNDUP FOR THE MARIANAS AND MICRONESIA  
NATIONAL WEATHER SERVICE TIYAN GU  
1100 PM CHST WED SEP 18 2019  
 
GUZ001>004-181400-  
MARIANA ISLANDS-  
 
CITY SKY/WX TMP DP RH WIND PRES REMARKS
 
GUAM AIRPORT TSTM 75 73 94 N14 29.92S FOG  
ANDERSEN AFB CLOUDY 81 77 89 NE7 29.92S  
ROTA AIRPORT NOT AVBL  
TINIAN AP NOT AVBL  
SAIPAN AP PTCLDY 81 75 83 N7 29.89F  
 

 
 
PMZ161-181400-  
REPUBLIC OF PALAU-  
 
CITY SKY/WX TMP DP RH WIND PRES REMARKS
 
KOROR AP MOCLDY 77 75 94 CALM 29.91R  
KOROR WSO NOT AVBL  
 

 
 
PMZ171>174-181400-  
FEDERATED STATES OF MICRONESIA-  
 
CITY SKY/WX TMP DP RH WIND PRES REMARKS
 
YAP AIRPORT MOCLDY 77 75 94 CALM 29.95R  
CHUUK AP CLOUDY 82 79 89 VRB3 29.88S HX 93  
POHNPEI AP NOT AVBL  
POHNPEI WSO CLEAR 79 75 89 S3 29.92F  
KOSRAE AP NOT AVBL  
 

 
 
PMZ181-181400-  
REPUBLIC OF THE MARSHALL ISLANDS-  
 
CITY SKY/WX TMP DP RH WIND PRES REMARKS
 
KWAJALEIN AP PTCLDY 84 75 74 W8 29.88S HX 92  
MAJURO AP NOT AVBL  
MAJURO WSO MOCLDY 84 77 79 W9 29.84F HX 94  
 

 
 
 
 
CLICK HERE TO GO TO PREVIOUS BULLETINS.

The Nexlab GU Page Main Text Page